Погода в Апостолово

Украина / Днепропетровская область     47°39′33″N   33°44′03″E
темп.,
°C
ветер,
м/с
пор.,
м/с
влажн.,
%
обл.,
%
осадки,
мм/ч
давл.,
гПа
погр.,
м
17 апреля, сб
сб1700:00+5юз597992 0.0 1018474
03:00+5зюз6990100 0.1 10181023
06:00+5зюз510887 0.1 1019589
09:00+8з69665 0.1 1020807
12:00+12з794955 0.0 10201760
15:00+13зюз5745100 0.0 10202001
18:00+12зсз345345 0.0 1020634
21:00+8ссв227019 0.0 102119
18 апреля, вс
вс1800:00+6всв11755 0.0 102010
03:00+6вюв117649 0.0 102010
06:00+5ю118093 0.0 101910
09:00+10ю225696 0.0 1019414
12:00+14ю334339 0.0 10181631
15:00+15юв434095 0.0 10171825
18:00+14юв3342100 0.0 1016572
21:00+12юв224679 0.0 101720
19 апреля, пн
пн1900:00+10юз356694 0.0 1016106
03:00+9юз228498 0.0 101643
06:00+9зсз118786 0.0 101512
09:00+12всв1166100 0.0 1015521
12:00+15вюв2254100 0.1 10141542
15:00+15юв225397 0.3 10131279
18:00+15всв2356100 0.1 1011848
21:00+12всв456899 0.1 1009105
20 апреля, вт
вт2000:00+11всв2573100 0.0 1008137
03:00+10всв51195100 3.9 1004530
06:00+10всв81396100 9.3 1000685
09:00+10в6898100 15.1 997405
12:00+13ю7981100 1.1 9951014
15:00+13ю676999 1.8 995998
18:00+10зсз7887100 0.3 996595
21:00+9зсз91681100 1.1 10021251
21 апреля, ср
ср2100:00+9з81383100 0.1 1006596
03:00+7зюз6128798 0.1 1010328
06:00+6зюз51189100 0.0 1011307
09:00+9зюз6972100 0.0 1014653
12:00+13зюз6853100 0.0 10151339
15:00+15зюз4745100 0.0 10152188
18:00+13юз356228 0.8 1016539
21:00+10ююз34755 1.0 101848